アトラス彗星

C/2020 R7 ( ATLAS )

English version
Home page
Updated on January 6, 2021

---------------------------------------------------------------------

・ プロフィール

発見日 2020年9月15日
発見光度 19.0等
発見者 Asteroid Terrestrial-Impact Last Alert System (ATLAS) search program

・ 写真集

・ 軌道要素

Epoch 2022 Sept. 18.0 TT = JDT 2459840.5
T 2022 Sept. 16.22218 TT                                Rudenko
q   2.9559216            (2000.0)            P               Q
z  -0.0000544      Peri.  347.83751     +0.05931271     -0.41758040
 +/-0.0000782      Node   268.28107     -0.82290419     -0.53461774
e   1.0001609      Incl.  114.89098     -0.56507583     +0.73471796
From 111 observations 2020 Sept. 15-Nov. 16, mean residual 0".4.

・ 星図

・ 光度変化

        m1 = 5.5 + 5 logΔ + 10.0 log r

---------------------------------------------------------------------

軌道要素はM.P.E.C. 2020-W26に掲載されたものです。
星図はステラナビゲータ Ver.10 (アストロアーツ) で作成したものです。
光度グラフはComet for Windowsで作成したものです。

---------------------------------------------------------------------

Copyright(C) Seiichi Yoshida (comet@aerith.net). All rights reserved.